EWG3PH EHAM-EDDP

Flight info

Callsign EWG3PH
Flight time 0h 55m
Altitude 39000
Route NYKER5W ARNEM L620 HMM DCT NORTA/N0383F230 DCT ADMOS T959 KOJEC KOJEC1R
Aircraft A320/M-SDE3FGHIRWY/LB1

Departure

Time 2026-05-07 19:03
Airport Amsterdam Airport Schiphol (EHAM)

Arrival

Time 2026-05-07 19:59
Airport Leipzig/Halle Airport (EDDP)
Time Latitude Longitude Altitude Speed Heading
2026-05-07 18:36 52.30796 4.76636 -1 ft 0 kts 345°
2026-05-07 18:50 52.30779 4.76644 -1 ft 4 kts 346°
2026-05-07 18:51 52.30753 4.76656 -1 ft 4 kts 338°
2026-05-07 18:51 52.30730 4.76676 -1 ft 4 kts 327°
2026-05-07 18:51 52.30707 4.76699 -1 ft 4 kts 326°
2026-05-07 18:51 52.30685 4.76723 -1 ft 4 kts 329°
2026-05-07 18:52 52.30664 4.76742 -1 ft 1 kts 330°
2026-05-07 18:52 52.30660 4.76746 -1 ft 1 kts 330°
2026-05-07 18:54 52.30662 4.76744 -1 ft 2 kts 330°
2026-05-07 18:54 52.30704 4.76752 -1 ft 9 kts 39°
2026-05-07 18:55 52.30676 4.76850 -1 ft 14 kts 151°
2026-05-07 18:55 52.30570 4.76903 -1 ft 14 kts 159°
2026-05-07 18:55 52.30473 4.76971 -1 ft 15 kts 197°
2026-05-07 18:55 52.30403 4.76804 -1 ft 21 kts 240°
2026-05-07 18:56 52.30317 4.76573 -1 ft 27 kts 238°
2026-05-07 18:56 52.30225 4.76331 -1 ft 24 kts 238°
2026-05-07 18:56 52.30125 4.76074 -1 ft 30 kts 238°
2026-05-07 18:56 52.30017 4.75794 -1 ft 22 kts 238°
2026-05-07 18:57 52.29925 4.75552 -1 ft 28 kts 237°
2026-05-07 18:57 52.29836 4.75293 -1 ft 24 kts 264°
2026-05-07 18:57 52.29910 4.75063 -1 ft 25 kts 311°
2026-05-07 18:57 52.30039 4.74833 0 ft 30 kts 311°
2026-05-07 18:58 52.30178 4.74574 10 ft 31 kts 311°
2026-05-07 18:58 52.30247 4.74445 10 ft 11 kts 310°
2026-05-07 18:58 52.30311 4.74317 3 ft 12 kts 307°
2026-05-07 18:58 52.30312 4.74162 0 ft 17 kts 230°
2026-05-07 18:59 52.30180 4.74070 -1 ft 26 kts 193°
2026-05-07 18:59 52.30084 4.74038 -1 ft 0 kts 193°
2026-05-07 18:59 52.30045 4.74019 -1 ft 11 kts 206°
2026-05-07 18:59 52.29971 4.73883 -1 ft 21 kts 239°
2026-05-07 19:00 52.29911 4.73648 -1 ft 21 kts 260°
2026-05-07 19:00 52.29912 4.73526 -1 ft 4 kts 275°
2026-05-07 19:00 52.29917 4.73450 -1 ft 0 kts 275°
2026-05-07 19:00 52.29923 4.73389 -1 ft 10 kts 289°
2026-05-07 19:01 52.29997 4.73392 -1 ft 16 kts 39°
2026-05-07 19:01 52.30105 4.73496 -1 ft 15 kts 356°
2026-05-07 19:01 52.30199 4.73541 -1 ft 12 kts 73°
2026-05-07 19:01 52.30197 4.73628 -2 ft 3 kts 94°
2026-05-07 19:02 52.30204 4.73718 -2 ft 13 kts 54°
2026-05-07 19:02 52.30292 4.73746 -4 ft 0 kts
2026-05-07 19:02 52.30296 4.73746 -4 ft 3 kts
2026-05-07 19:03 52.30432 4.73762 -3 ft 60 kts
2026-05-07 19:03 52.31174 4.73834 0 ft 143 kts
2026-05-07 19:03 52.32224 4.73894 577 ft 152 kts
2026-05-07 19:03 52.33270 4.74217 1320 ft 155 kts 18°
2026-05-07 19:04 52.34313 4.74759 1963 ft 163 kts 23°
2026-05-07 19:04 52.35437 4.75457 2365 ft 184 kts 22°
2026-05-07 19:04 52.36722 4.76219 2707 ft 209 kts 21°
2026-05-07 19:04 52.38082 4.77339 3092 ft 231 kts 42°
2026-05-07 19:05 52.39269 4.79301 3486 ft 251 kts 48°
2026-05-07 19:05 52.40494 4.81408 4113 ft 261 kts 47°
2026-05-07 19:05 52.41584 4.83809 4813 ft 266 kts 63°
2026-05-07 19:05 52.42234 4.86658 5497 ft 270 kts 79°
2026-05-07 19:06 52.42387 4.89733 6191 ft 272 kts 91°
2026-05-07 19:06 52.42181 4.95984 7513 ft 277 kts 107°
2026-05-07 19:06 52.41438 4.98893 8165 ft 278 kts 122°
2026-05-07 19:07 52.40213 5.01342 8759 ft 280 kts 139°
2026-05-07 19:07 52.38644 5.03253 9373 ft 283 kts 146°
2026-05-07 19:07 52.37020 5.05113 9956 ft 286 kts 146°
2026-05-07 19:07 52.35377 5.07059 10218 ft 300 kts 141°
2026-05-07 19:08 52.33880 5.09551 10350 ft 314 kts 129°
2026-05-07 19:08 52.32707 5.12616 10553 ft 322 kts 116°
2026-05-07 19:08 52.31876 5.15991 10856 ft 325 kts 111°
2026-05-07 19:08 52.31060 5.19446 11154 ft 327 kts 111°
2026-05-07 19:09 52.30229 5.22917 11463 ft 329 kts 112°
2026-05-07 19:09 52.29660 5.26533 11775 ft 331 kts 98°
2026-05-07 19:09 52.29369 5.30279 12046 ft 333 kts 98°
2026-05-07 19:09 52.29086 5.34049 12313 ft 335 kts 97°
2026-05-07 19:10 52.28804 5.37826 12600 ft 336 kts 97°
2026-05-07 19:10 52.28520 5.41633 12873 ft 338 kts 97°
2026-05-07 19:10 52.28236 5.45456 13124 ft 340 kts 97°
2026-05-07 19:10 52.27948 5.49295 13393 ft 341 kts 97°
2026-05-07 19:11 52.27658 5.53143 13658 ft 342 kts 97°
2026-05-07 19:11 52.27364 5.56999 13905 ft 343 kts 97°
2026-05-07 19:11 52.27066 5.60876 14123 ft 344 kts 97°
2026-05-07 19:11 52.26764 5.64759 14342 ft 345 kts 97°
2026-05-07 19:12 52.26460 5.68648 14543 ft 346 kts 98°
2026-05-07 19:12 52.26153 5.72556 14733 ft 347 kts 98°
2026-05-07 19:12 52.25846 5.76468 14933 ft 348 kts 98°
2026-05-07 19:12 52.25539 5.80393 15126 ft 349 kts 97°
2026-05-07 19:13 52.25229 5.84322 15295 ft 350 kts 98°
2026-05-07 19:13 52.24919 5.88222 15477 ft 351 kts 98°
2026-05-07 19:13 52.24611 5.92077 15600 ft 341 kts 98°
2026-05-07 19:13 52.24308 5.95857 15722 ft 331 kts 98°
2026-05-07 19:14 52.24011 5.99546 15849 ft 325 kts 98°
2026-05-07 19:14 52.23718 6.03162 16029 ft 318 kts 98°
2026-05-07 19:14 52.23434 6.06650 16499 ft 303 kts 98°
2026-05-07 19:14 52.23160 6.10032 17026 ft 300 kts 98°
2026-05-07 19:15 52.22885 6.13423 17569 ft 299 kts 98°
2026-05-07 19:15 52.22612 6.16765 18104 ft 298 kts 98°
2026-05-07 19:15 52.22338 6.20117 18616 ft 298 kts 98°
2026-05-07 19:15 52.22063 6.23460 19097 ft 297 kts 98°
2026-05-07 19:16 52.21787 6.26797 19584 ft 297 kts 98°
2026-05-07 19:16 52.21511 6.30124 20070 ft 297 kts 98°
2026-05-07 19:16 52.21226 6.33537 20208 ft 310 kts 98°
2026-05-07 19:16 52.20928 6.37075 20337 ft 320 kts 98°
2026-05-07 19:17 52.20622 6.40703 20472 ft 327 kts 98°
2026-05-07 19:17 52.20309 6.44423 20588 ft 334 kts 98°
2026-05-07 19:17 52.19990 6.48210 20717 ft 339 kts 98°
2026-05-07 19:17 52.19664 6.52043 20849 ft 344 kts 98°
2026-05-07 19:18 52.19332 6.55921 20979 ft 347 kts 98°
2026-05-07 19:18 52.19001 6.59787 21107 ft 350 kts 98°
2026-05-07 19:18 52.18660 6.63729 21233 ft 352 kts 98°
2026-05-07 19:18 52.18316 6.67693 21364 ft 354 kts 98°
2026-05-07 19:19 52.17971 6.71674 21503 ft 356 kts 98°
2026-05-07 19:19 52.17623 6.75684 21633 ft 357 kts 98°
2026-05-07 19:19 52.17270 6.79708 21773 ft 358 kts 98°
2026-05-07 19:19 52.16917 6.83727 21898 ft 359 kts 99°
2026-05-07 19:20 52.16562 6.87757 22031 ft 360 kts 99°
2026-05-07 19:20 52.16205 6.91793 22161 ft 360 kts 99°
2026-05-07 19:20 52.15846 6.95829 22295 ft 361 kts 99°
2026-05-07 19:20 52.15484 6.99877 22430 ft 361 kts 99°
2026-05-07 19:21 52.15122 7.03925 22565 ft 362 kts 99°
2026-05-07 19:21 52.14759 7.07983 22700 ft 362 kts 99°
2026-05-07 19:21 52.14395 7.12034 22988 ft 358 kts 99°
2026-05-07 19:21 52.14036 7.16003 23451 ft 350 kts 99°
2026-05-07 19:22 52.13689 7.19823 23945 ft 341 kts 99°
2026-05-07 19:22 52.13345 7.23593 24415 ft 332 kts 99°
2026-05-07 19:22 52.13006 7.27271 24892 ft 324 kts 99°
2026-05-07 19:22 52.12677 7.30858 25385 ft 316 kts 99°
2026-05-07 19:23 52.12358 7.34355 25877 ft 309 kts 99°
2026-05-07 19:23 52.12044 7.37769 26381 ft 301 kts 99°
2026-05-07 19:23 52.11735 7.41092 26884 ft 294 kts 100°
2026-05-07 19:23 52.11527 7.43302 27241 ft 289 kts 100°
2026-05-07 19:24 52.11227 7.46493 27774 ft 282 kts 100°
2026-05-07 19:24 52.10933 7.49620 28202 ft 279 kts 100°
2026-05-07 19:24 52.10639 7.52750 28492 ft 281 kts 100°
2026-05-07 19:24 52.10340 7.55896 28771 ft 283 kts 100°
2026-05-07 19:25 52.10033 7.59129 28772 ft 295 kts 100°
2026-05-07 19:25 52.09714 7.62488 28777 ft 306 kts 100°
2026-05-07 19:25 52.09385 7.65945 28925 ft 322 kts 100°
2026-05-07 19:25 52.09031 7.69641 29070 ft 340 kts 100°
2026-05-07 19:26 52.08657 7.73531 29217 ft 357 kts 100°
2026-05-07 19:26 52.08264 7.77626 29360 ft 375 kts 100°
2026-05-07 19:26 52.07852 7.81900 29506 ft 391 kts 100°
2026-05-07 19:26 52.07422 7.86351 29652 ft 407 kts 100°
2026-05-07 19:27 52.06975 7.90983 29795 ft 421 kts 99°
2026-05-07 19:27 52.06512 7.95756 29944 ft 434 kts 99°
2026-05-07 19:27 52.06032 8.00665 30086 ft 446 kts 99°
2026-05-07 19:27 52.05536 8.05701 30229 ft 456 kts 99°
2026-05-07 19:28 52.05028 8.10846 30350 ft 466 kts 99°
2026-05-07 19:28 52.04509 8.16077 30543 ft 471 kts 99°
2026-05-07 19:28 52.03984 8.21337 30868 ft 472 kts 99°
2026-05-07 19:28 52.03454 8.26609 31255 ft 472 kts 100°
2026-05-07 19:29 52.02922 8.31863 31669 ft 471 kts 100°
2026-05-07 19:29 52.02389 8.37107 32091 ft 470 kts 99°
2026-05-07 19:29 52.01856 8.42333 32541 ft 469 kts 99°
2026-05-07 19:29 52.01322 8.47548 32992 ft 467 kts 99°
2026-05-07 19:30 52.00788 8.52752 33438 ft 467 kts 99°
2026-05-07 19:30 52.00254 8.57942 33897 ft 466 kts 99°
2026-05-07 19:30 51.99721 8.63104 34185 ft 463 kts 99°
2026-05-07 19:30 51.99189 8.68238 33350 ft 461 kts 99°
2026-05-07 19:31 51.98652 8.73377 32188 ft 463 kts 100°
2026-05-07 19:31 51.98109 8.78541 31017 ft 465 kts 100°
2026-05-07 19:31 51.97560 8.83725 29757 ft 468 kts 100°
2026-05-07 19:31 51.97008 8.88933 28306 ft 470 kts 100°
2026-05-07 19:32 51.96460 8.94097 26810 ft 473 kts 100°
2026-05-07 19:32 51.95893 8.99388 25854 ft 478 kts 100°
2026-05-07 19:32 51.95317 9.04729 25443 ft 482 kts 100°
2026-05-07 19:32 51.94736 9.10086 25223 ft 484 kts 101°
2026-05-07 19:33 51.94121 9.15459 25080 ft 485 kts 101°
2026-05-07 19:33 51.93473 9.20839 25121 ft 486 kts 102°
2026-05-07 19:33 51.92807 9.26204 25114 ft 486 kts 102°
2026-05-07 19:33 51.92133 9.31569 25115 ft 486 kts 102°
2026-05-07 19:34 51.91460 9.36933 25117 ft 486 kts 102°
2026-05-07 19:34 51.90789 9.42298 25117 ft 486 kts 102°
2026-05-07 19:34 51.90121 9.47664 25118 ft 486 kts 102°
2026-05-07 19:34 51.89456 9.53024 25117 ft 486 kts 102°
2026-05-07 19:35 51.88790 9.58387 25116 ft 486 kts 102°
2026-05-07 19:35 51.88122 9.63758 25113 ft 486 kts 102°
2026-05-07 19:35 51.87450 9.69123 25115 ft 486 kts 102°
2026-05-07 19:35 51.86776 9.74487 25097 ft 486 kts 102°
2026-05-07 19:36 51.86098 9.79845 24829 ft 486 kts 102°
2026-05-07 19:36 51.85413 9.85206 24506 ft 485 kts 102°
2026-05-07 19:36 51.84726 9.90543 24204 ft 483 kts 102°
2026-05-07 19:36 51.84042 9.95851 23897 ft 482 kts 102°
2026-05-07 19:37 51.83357 10.01137 23573 ft 480 kts 102°
2026-05-07 19:37 51.82672 10.06413 23209 ft 478 kts 102°
2026-05-07 19:37 51.81992 10.11652 22852 ft 476 kts 102°
2026-05-07 19:37 51.81311 10.16871 22501 ft 473 kts 102°
2026-05-07 19:38 51.80642 10.21995 22149 ft 471 kts 102°
2026-05-07 19:38 51.79967 10.27166 21808 ft 469 kts 102°
2026-05-07 19:38 51.79295 10.32305 21465 ft 467 kts 102°
2026-05-07 19:38 51.78619 10.37429 21122 ft 465 kts 102°
2026-05-07 19:39 51.77943 10.42524 20782 ft 463 kts 102°
2026-05-07 19:39 51.77263 10.47595 20460 ft 461 kts 102°
2026-05-07 19:39 51.76578 10.52631 20132 ft 458 kts 102°
2026-05-07 19:39 51.75894 10.57645 19811 ft 456 kts 102°
2026-05-07 19:40 51.75211 10.62631 19490 ft 454 kts 102°
2026-05-07 19:40 51.74529 10.67598 19173 ft 452 kts 102°
2026-05-07 19:40 51.73848 10.72538 18863 ft 450 kts 102°
2026-05-07 19:40 51.73174 10.77456 18554 ft 448 kts 102°
2026-05-07 19:41 51.72501 10.82362 18220 ft 446 kts 102°
2026-05-07 19:41 51.71833 10.87234 18071 ft 444 kts 102°
2026-05-07 19:41 51.71164 10.92101 18114 ft 445 kts 102°
2026-05-07 19:41 51.70494 10.96972 18108 ft 445 kts 102°
2026-05-07 19:42 51.69824 11.01838 18096 ft 445 kts 102°
2026-05-07 19:42 51.69152 11.06709 18101 ft 445 kts 102°
2026-05-07 19:42 51.68479 11.11581 18104 ft 445 kts 102°
2026-05-07 19:42 51.67815 11.16383 18108 ft 445 kts 102°
2026-05-07 19:43 51.67139 11.21243 18108 ft 444 kts 102°
2026-05-07 19:43 51.66452 11.26079 18101 ft 443 kts 102°
2026-05-07 19:43 51.65764 11.30911 18109 ft 442 kts 103°
2026-05-07 19:43 51.65074 11.35738 18111 ft 442 kts 103°
2026-05-07 19:44 51.64384 11.40566 18054 ft 443 kts 103°
2026-05-07 19:44 51.63701 11.45334 17523 ft 428 kts 103°
2026-05-07 19:44 51.63040 11.49910 16996 ft 412 kts 103°
2026-05-07 19:44 51.62395 11.54337 16478 ft 401 kts 102°
2026-05-07 19:45 51.61760 11.58652 15970 ft 390 kts 102°
2026-05-07 19:45 51.61137 11.62835 15463 ft 380 kts 103°
2026-05-07 19:45 51.60524 11.66911 14981 ft 370 kts 102°
2026-05-07 19:45 51.59908 11.70872 14486 ft 360 kts 103°
2026-05-07 19:46 51.59297 11.74732 14009 ft 353 kts 103°
2026-05-07 19:46 51.58721 11.78521 13485 ft 345 kts 98°
2026-05-07 19:46 51.58634 11.82313 12956 ft 336 kts 85°
2026-05-07 19:46 51.58767 11.86027 12431 ft 331 kts 85°
2026-05-07 19:47 51.58911 11.89700 11913 ft 326 kts 85°
2026-05-07 19:47 51.59055 11.93324 11407 ft 323 kts 85°
2026-05-07 19:47 51.59198 11.96912 10908 ft 321 kts 85°
2026-05-07 19:47 51.59341 12.00475 10418 ft 318 kts 85°
2026-05-07 19:48 51.59485 12.04014 9922 ft 316 kts 85°
2026-05-07 19:48 51.59630 12.07534 9393 ft 314 kts 85°
2026-05-07 19:48 51.59692 12.11030 8860 ft 313 kts 95°
2026-05-07 19:48 51.59010 12.14332 8346 ft 314 kts 120°
2026-05-07 19:49 51.57544 12.16893 7836 ft 313 kts 144°
2026-05-07 19:49 51.55580 12.18247 7333 ft 314 kts 168°
2026-05-07 19:49 51.53416 12.18191 6834 ft 313 kts 193°
2026-05-07 19:49 51.51462 12.16712 6333 ft 313 kts 217°
2026-05-07 19:50 51.50066 12.14074 5812 ft 311 kts 243°
2026-05-07 19:50 51.49339 12.10832 5299 ft 308 kts 257°
2026-05-07 19:50 51.49135 12.07507 5085 ft 286 kts 269°
2026-05-07 19:50 51.49092 12.04486 5085 ft 256 kts 270°
2026-05-07 19:51 51.49060 12.01734 5090 ft 243 kts 270°
2026-05-07 19:51 51.49028 11.99032 5094 ft 242 kts 270°
2026-05-07 19:51 51.48997 11.96339 5094 ft 241 kts 270°
2026-05-07 19:51 51.48966 11.93643 5096 ft 242 kts 270°
2026-05-07 19:52 51.48937 11.90942 5089 ft 242 kts 270°
2026-05-07 19:52 51.48908 11.88255 5057 ft 240 kts 269°
2026-05-07 19:52 51.48882 11.85578 4685 ft 240 kts 270°
2026-05-07 19:52 51.48745 11.82924 4391 ft 238 kts 253°
2026-05-07 19:53 51.47887 11.80712 4157 ft 234 kts 219°
2026-05-07 19:53 51.46459 11.79636 4092 ft 232 kts 186°
2026-05-07 19:53 51.44866 11.79987 4092 ft 230 kts 152°
2026-05-07 19:53 51.43677 11.81638 4097 ft 228 kts 122°
2026-05-07 19:54 51.42906 11.83816 4093 ft 228 kts 115°
2026-05-07 19:54 51.42210 11.86110 3983 ft 230 kts 109°
2026-05-07 19:54 51.42076 11.88778 3090 ft 251 kts 84°
2026-05-07 19:54 51.42017 11.91422 3405 ft 233 kts 92°
2026-05-07 19:55 51.42026 11.93972 3326 ft 218 kts 87°
2026-05-07 19:55 51.42016 11.96411 3400 ft 208 kts 90°
2026-05-07 19:55 51.42029 11.98594 3264 ft 185 kts 86°
2026-05-07 19:55 51.42103 12.00607 2981 ft 177 kts 84°
2026-05-07 19:56 51.42245 12.02528 2722 ft 172 kts 79°
2026-05-07 19:56 51.42371 12.04428 2573 ft 171 kts 86°
2026-05-07 19:56 51.42385 12.06337 2457 ft 172 kts 86°
2026-05-07 19:56 51.42479 12.08226 2341 ft 170 kts 83°
2026-05-07 19:57 51.42605 12.10203 2344 ft 177 kts 83°
2026-05-07 19:57 51.42698 12.12135 1968 ft 167 kts 84°
2026-05-07 19:57 51.42740 12.13818 1697 ft 138 kts 84°
2026-05-07 19:57 51.42818 12.15272 1416 ft 126 kts 82°
2026-05-07 19:58 51.42885 12.16649 1110 ft 122 kts 83°
2026-05-07 19:58 51.42954 12.17998 937 ft 121 kts 83°
2026-05-07 19:58 51.43004 12.19351 781 ft 121 kts 84°
2026-05-07 19:58 51.43083 12.20673 594 ft 120 kts 83°
2026-05-07 19:59 51.43143 12.22016 450 ft 118 kts 84°
2026-05-07 19:59 51.43203 12.23145 447 ft 84 kts 86°
2026-05-07 19:59 51.43228 12.23793 449 ft 46 kts 85°
2026-05-07 19:59 51.43242 12.24178 441 ft 28 kts 91°
2026-05-07 20:00 51.43230 12.24515 447 ft 32 kts 101°
2026-05-07 20:00 51.43161 12.24775 453 ft 0 kts 118°
2026-05-07 20:00 51.43160 12.24775 453 ft 1 kts 118°
2026-05-07 20:00 51.43156 12.24788 453 ft 5 kts 117°
2026-05-07 20:01 51.43137 12.24852 452 ft 0 kts 116°
2026-05-07 20:01 51.43136 12.24855 452 ft 2 kts 116°
2026-05-07 20:01 51.43128 12.24883 452 ft 3 kts 116°
2026-05-07 20:01 51.43104 12.24961 454 ft 15 kts 116°
2026-05-07 20:02 51.42997 12.25123 451 ft 30 kts 182°
2026-05-07 20:02 51.42777 12.25016 457 ft 33 kts 195°
2026-05-07 20:02 51.42555 12.24938 468 ft 33 kts 190°
2026-05-07 20:02 51.42328 12.24853 480 ft 34 kts 193°
2026-05-07 20:03 51.42093 12.24763 489 ft 36 kts 193°